Terug naar catalogus

TDRS 12

ActiefCommunicatieGEO
NORAD 39504·PAYLOAD·🇺🇸 United States

Gelanceerd Jan 24, 2014 vanaf Cape Canaveral Space Force Station

Loading…

TLE

VersSource: Space-Track

Epoch: Sep 14, 2026, 15:36 UTC

1 39504U 14004A   26257.65040126 -.00000276  00000-0  00000-0 0  9992
2 39504   4.0715  20.4528 0006344 215.4847 310.9030  1.00269785 45170

Volg TDRS 12 in realtime met AllMySat

Download on the App Store